Big Bear Station Historical Data
Daily Summary for August 20, 2019 Units:  English    Metric   Both
Next Day »
Daily Weekly Monthly Yearly Custom
  High: Low: Average:
Temperature: 84.6 °F 46.8 °F 63.9 °F
Dew Point: 44.3 °F 24.6 °F 36.5 °F
Humidity: 78% 16% 41%
Wind Speed: 6.3mph 0mph 1.7mph
Wind Gust: -999mph - -
Wind- - West
Pressure: 23.63 in 23.59 in -
Precipitation: 0 in    
Historical Graphs
 
 
Tabular Data for August 20, 2019
Time Temperature Dew Point Pressure Wind Wind Speed Wind Gust Humidity Rainfall Rate (Hourly)
00:14 50.7 °F 31.2 °F 23.61 in Calm   -999 mph 47% 0.00 in
00:29 50.5 °F 32 °F 23.60 in Calm   -999 mph 49% 0.00 in
00:45 50.5 °F 29.4 °F 23.60 in Calm   -999 mph 44% 0.00 in
01:00 49.6 °F 27.4 °F 23.60 in Calm   -999 mph 42% 0.00 in
01:15 49.3 °F 30.9 °F 23.60 in Calm   -999 mph 49% 0.00 in
01:30 49.1 °F 30.2 °F 23.60 in Calm   -999 mph 48% 0.00 in
01:45 49.1 °F 31.3 °F 23.60 in Calm   -999 mph 50% 0.00 in
02:01 48.7 °F 31.9 °F 23.60 in Calm   -999 mph 52% 0.00 in
02:16 48.2 °F 31.4 °F 23.60 in Calm   -999 mph 52% 0.00 in
02:31 48.4 °F 33.4 °F 23.60 in Calm   -999 mph 56% 0.00 in
02:46 48.2 °F 34.1 °F 23.60 in Calm   -999 mph 58% 0.00 in
03:01 47.8 °F 34.6 °F 23.60 in Calm   -999 mph 60% 0.00 in
03:17 47.8 °F 33.7 °F 23.59 in Calm   -999 mph 58% 0.00 in
03:32 47.8 °F 33.3 °F 23.59 in Calm   -999 mph 57% 0.00 in
03:47 47.5 °F 35.5 °F 23.59 in Calm   -999 mph 63% 0.00 in
04:02 47.1 °F 35.9 °F 23.60 in Calm   -999 mph 65% 0.00 in
04:18 47.3 °F 35.7 °F 23.59 in Calm   -999 mph 64% 0.00 in
04:33 47.1 °F 35.2 °F 23.60 in Calm   -999 mph 63% 0.00 in
04:48 47.1 °F 34.7 °F 23.60 in Calm   -999 mph 62% 0.00 in
05:03 47.3 °F 37.3 °F 23.60 in Calm   -999 mph 68% 0.00 in
05:18 46.9 °F 38 °F 23.60 in Calm   -999 mph 71% 0.00 in
05:34 47.3 °F 38.7 °F 23.60 in Calm   -999 mph 72% 0.00 in
05:49 47.3 °F 39.1 °F 23.60 in Calm   -999 mph 73% 0.00 in
06:04 46.8 °F 39 °F 23.60 in Calm   -999 mph 74% 0.00 in
06:19 47.3 °F 39.1 °F 23.61 in Calm   -999 mph 73% 0.00 in
06:34 47.3 °F 40.1 °F 23.61 in Calm   -999 mph 76% 0.00 in
06:50 47.5 °F 40.3 °F 23.61 in Calm   -999 mph 76% 0.00 in
07:05 48 °F 40.8 °F 23.61 in Calm   -999 mph 76% 0.00 in
07:20 48.2 °F 41.7 °F 23.61 in Calm   -999 mph 78% 0.00 in
07:35 48.7 °F 41.5 °F 23.61 in Calm   -999 mph 76% 0.00 in
07:50 49.5 °F 41.2 °F 23.61 in Calm   -999 mph 73% 0.00 in
08:06 50.7 °F 41.6 °F 23.61 in Calm   -999 mph 71% 0.00 in
08:21 51.4 °F 43 °F 23.61 in Calm   -999 mph 73% 0.00 in
08:36 53.8 °F 43.9 °F 23.62 in Calm   -999 mph 69% 0.00 in
08:51 58.6 °F 34.3 °F 23.62 in Calm   -999 mph 40% 0.00 in
09:06 62.8 °F 36.1 °F 23.62 in Calm   -999 mph 37% 0.00 in
09:22 66.4 °F 35.6 °F 23.62 in NW 1.7 mph -999 mph 32% 0.00 in
09:38 68 °F 37.8 °F 23.62 in NNW 2.7 mph -999 mph 33% 0.00 in
09:53 69.3 °F 39 °F 23.63 in NW 3.7 mph -999 mph 33% 0.00 in
10:08 70.7 °F 34.1 °F 23.63 in NW 3.2 mph -999 mph 26% 0.00 in
10:23 71.8 °F 35.1 °F 23.63 in NW 3.2 mph -999 mph 26% 0.00 in
10:38 73.8 °F 35.8 °F 23.63 in NNW 3.7 mph -999 mph 25% 0.00 in
10:54 75.6 °F 39.3 °F 23.63 in NW 4.2 mph -999 mph 27% 0.00 in
11:09 77 °F 36.4 °F 23.63 in NW 2.7 mph -999 mph 23% 0.00 in
11:24 78.8 °F 36.7 °F 23.63 in North 3.7 mph -999 mph 22% 0.00 in
11:39 80.2 °F 35.5 °F 23.63 in WNW 4.2 mph -999 mph 20% 0.00 in
11:54 80.1 °F 36.6 °F 23.63 in NNE 4.7 mph -999 mph 21% 0.00 in
12:10 81.5 °F 36.6 °F 23.63 in NW 3.7 mph -999 mph 20% 0.00 in
12:25 83.1 °F 32.3 °F 23.63 in NW 5.3 mph -999 mph 16% 0.00 in
12:40 82.2 °F 33.1 °F 23.62 in NNE 6.3 mph -999 mph 17% 0.00 in
12:56 84.2 °F 37.5 °F 23.62 in West 3.2 mph -999 mph 19% 0.00 in
13:11 84 °F 41.1 °F 23.62 in WNW 4.7 mph -999 mph 22% 0.00 in
13:27 84.2 °F 40 °F 23.62 in NW 5.3 mph -999 mph 21% 0.00 in
13:42 83.7 °F 44.2 °F 23.62 in NNW 4.2 mph -999 mph 25% 0.00 in
13:57 84.2 °F 40 °F 23.62 in NW 3.7 mph -999 mph 21% 0.00 in
14:13 84 °F 39.9 °F 23.62 in NW 4.2 mph -999 mph 21% 0.00 in
14:28 84.6 °F 37.8 °F 23.61 in NW 5.3 mph -999 mph 19% 0.00 in
14:44 84.4 °F 36.3 °F 23.61 in North 2.7 mph -999 mph 18% 0.00 in
14:59 84.6 °F 36.4 °F 23.61 in NW 3.2 mph -999 mph 18% 0.00 in
15:15 84.4 °F 39 °F 23.60 in NW 5.8 mph -999 mph 20% 0.00 in
15:30 82.9 °F 40.2 °F 23.60 in NNE 5.3 mph -999 mph 22% 0.00 in
15:45 82 °F 42.7 °F 23.60 in NNW 5.3 mph -999 mph 25% 0.00 in
16:00 81.5 °F 44.3 °F 23.60 in NW 4.7 mph -999 mph 27% 0.00 in
16:16 81.3 °F 44.1 °F 23.60 in NW 5.3 mph -999 mph 27% 0.00 in
16:31 81 °F 42.9 °F 23.60 in NW 5.8 mph -999 mph 26% 0.00 in
16:46 80.8 °F 43.7 °F 23.60 in WNW 5.3 mph -999 mph 27% 0.00 in
17:02 82.9 °F 43.5 °F 23.60 in NW 4.7 mph -999 mph 25% 0.00 in
17:17 84 °F 43.3 °F 23.60 in WNW 3.2 mph -999 mph 24% 0.00 in
17:32 83.7 °F 43.1 °F 23.60 in NW 3.7 mph -999 mph 24% 0.00 in
17:48 82.9 °F 41.3 °F 23.60 in NNW 4.7 mph -999 mph 23% 0.00 in
18:03 82.4 °F 42 °F 23.59 in NNE 1.1 mph -999 mph 24% 0.00 in
18:18 81.7 °F 41.4 °F 23.59 in Calm   -999 mph 24% 0.00 in
18:34 77.7 °F 41.1 °F 23.59 in NW 2.7 mph -999 mph 27% 0.00 in
18:49 73.8 °F 38.7 °F 23.59 in West 2.2 mph -999 mph 28% 0.00 in
19:04 71.6 °F 39.4 °F 23.59 in Calm   -999 mph 31% 0.00 in
19:19 70.3 °F 37.4 °F 23.59 in Calm   -999 mph 30% 0.00 in
19:35 68.2 °F 37.2 °F 23.60 in Calm   -999 mph 32% 0.00 in
19:50 66.9 °F 37.6 °F 23.60 in Calm   -999 mph 34% 0.00 in
20:05 64.4 °F 36.1 °F 23.60 in Calm   -999 mph 35% 0.00 in
20:21 63.1 °F 34.3 °F 23.60 in Calm   -999 mph 34% 0.00 in
20:36 61.7 °F 33.8 °F 23.60 in Calm   -999 mph 35% 0.00 in
20:51 60.6 °F 32.8 °F 23.60 in Calm   -999 mph 35% 0.00 in
21:06 59.7 °F 32.7 °F 23.60 in Calm   -999 mph 36% 0.00 in
21:21 58.8 °F 31.2 °F 23.61 in Calm   -999 mph 35% 0.00 in
21:37 58.1 °F 32.6 °F 23.61 in Calm   -999 mph 38% 0.00 in
21:52 57.2 °F 29.1 °F 23.61 in SSE 2.2 mph -999 mph 34% 0.00 in
22:07 56.5 °F 25.4 °F 23.61 in Calm   -999 mph 30% 0.00 in
22:22 56.1 °F 29.5 °F 23.61 in South 2.2 mph -999 mph 36% 0.00 in
22:37 55.4 °F 30.2 °F 23.61 in Calm   -999 mph 38% 0.00 in
22:53 54.7 °F 29.6 °F 23.61 in Calm   -999 mph 38% 0.00 in
23:08 54.7 °F 24.6 °F 23.61 in South 2.2 mph -999 mph 31% 0.00 in
23:23 54 °F 30.2 °F 23.61 in Calm   -999 mph 40% 0.00 in
23:38 53.6 °F 29.9 °F 23.61 in Calm   -999 mph 40% 0.00 in
23:54 53.1 °F 32.9 °F 23.61 in Calm   -999 mph 46% 0.00 in
Big Bear CA Weather